Hourly Data Report for June 19, 2021

MANIWAKI AIRPORT
QUEBEC
Current Station Operator: ECCC - MSC

46°16'29.000" N
75°59'31.000" W
199.70 m
7034482
71721
WMJ

Download Data

Hourly Data (June 2021)
Hourly Data Report for June 19, 2021
TIME
LST
Temp Definition
°C
Dew Point Definition
°C
Rel Hum Definition
%
Precip. Amount Definition
mm

Wind Dir Definition
10's deg

Wind Spd Definition
km/h
Visibility Definition
km
Stn Press Definition
kPa
Hmdx Definition


Wind Chill Definition


Weather Definition


00:00 16.7 16.0 95 0.0 19 12   97.87     LegendNANA
01:00 16.8 16.1 95 0.0 19 10   97.86     LegendNANA
02:00 16.4 15.7 96 0.0 20 7   97.81     LegendNANA
03:00 14.8 14.5 98 0.0 20 9   97.76     LegendNANA
04:00 14.8 14.6 99 0.0 21 11   97.70     LegendNANA
05:00 15.3 14.4 94 0.0 21 13   97.73     LegendNANA
06:00 16.9 12.9 77 0.0 24 17   97.80     LegendNANA
07:00 17.5 12.4 72 0.0 26 14   97.89     LegendNANA
08:00 18.3 11.9 66 0.0 27 18   97.92     LegendNANA
09:00 18.7 12.2 66 0.0 27 15   97.94     LegendNANA
10:00 19.5 11.6 60 0.0 27 16   97.97     LegendNANA
11:00 20.7 11.8 57 0.0 27 18   98.02     LegendNANA
12:00 21.0 11.9 56 0.0 26 14   98.05     LegendNANA
13:00 21.5 10.9 51 0.0 26 20   98.05     LegendNANA
14:00 21.9 10.7 49 0.0 27 19   98.04     LegendNANA
15:00 22.1 10.1 47 0.0 28 19   98.05     LegendNANA
16:00 22.4 11.0 49 0.0 27 14   98.05     LegendNANA
17:00 21.9 11.2 51 0.0 32 11   98.07     LegendNANA
18:00 21.9 11.3 51 0.0 31 12   98.07     LegendNANA
19:00 20.7 10.7 53 0.0 32 9   98.08     LegendNANA
20:00 18.9 11.2 61 0.0 30 7   98.12     LegendNANA
21:00 17.1 11.3 69 0.0 33 5   98.19     LegendNANA
22:00 13.2 11.3 88 0.0 35 4   98.26     LegendNANA
23:00 12.1 11.3 95 0.0   0   98.31     LegendNANA

Notes on Data Quality.

Legend

  • E = Estimated
  • M = Missing
  • NA = Not Available*
  • [empty] = Indicates an unobserved value
Date modified: